Regional Weather Roundup
Issued by NWS State College, PA

Home | Current Version | Previous Version | Graphics & Text | Print | Product List | Glossary Off
Versions: 1 2 3 4 5 6 7 8 9 10 11 12 13 14 15 16 17 18 19 20 21 22 23 24 25 26 27 28 29 30 31 32 33 34 35 36 37 38 39 40 41 42 43 44 45 46 47 48 49 50

000
ASUS41 KCTP 222303
RWRCTP

REGIONAL WEATHER ROUNDUP
NATIONAL WEATHER SERVICE STATE COLLEGE PA
700 PM EDT TUE MAY 22 2018

Note: "fair" indicates few or no clouds below 12,000 feet with no
significant weather and/or obstructions to visibility.

* = STATION THAT DOES NOT REPORT PRECIPITATION /E.G. RAIN...SNOW...ETC/
    THUNDER OR FOG.

PAZ002>004-007>009-013>016-020>023-029>032-230000-
WESTERN PENNSYLVANIA

CITY           SKY/WX    TMP DP  RH WIND       PRES   REMARKS
ERIE           CLOUDY    65  61  87 S3        29.93F FOG
MEADVILLE      FAIR      69  66  90 CALM      29.94S
FRANKLIN*      FAIR      65  64  97 CALM      29.95S
NEW CASTLE     MOCLDY    67  67 100 CALM      29.95F
BEAVER COUNTY  TSTM      68  64  88 N6        29.91F
BUTLER*        TSTM      71  66  84 CALM      29.95S
PITTSBURGH INT TSTM      76  66  71 SW7       29.94F
PITTSBURGH     FAIR      74  66  76 S10       29.94F
INDIANA*       PTSUNNY   75  66  73 SW10      29.99F
LATROBE        MOSUNNY   75  66  73 S12       29.77F
WASHINGTON CO* FAIR      74  66  76 S9        29.98F
$$

PAZ004>006-010>012-017>019-024>028-033>037-041-042-045-046-049>053-230000-
CENTRAL PENNSYLVANIA

CITY           SKY/WX    TMP DP  RH WIND       PRES   REMARKS
BRADFORD       FAIR      69  62  78 W6        29.96S
DUBOIS         FAIR      70  64  81 SW6       29.95R
CLEARFIELD     PTSUNNY   73  63  70 SW9       29.95S
JOHNSTOWN      CLOUDY    71  62  73 SW9       29.99F
ALTOONA        FAIR      76  65  68 SW8       29.97F
STATE COLLEGE  MOSUNNY   72  66  83 S8        29.94F
WILLIAMSPORT   CLOUDY    65  61  87 E5        29.93F
SELINSGROVE    CLOUDY    65  61  87 S3        29.97F
FT INDIANTOWN  CLOUDY    61  60  99 E3        30.00F FOG
CAPITAL CITY   CLOUDY    65  61  87 E7        29.98F FOG
HARRISBURG     CLOUDY    64  62  93 E6        29.98F FOG
YORK           FAIR      70  67  90 E7        29.98F
$$

PAZ038>040-043-044-047-048-054-055-060>062-067>071-230000-
EASTERN PENNSYLVANIA

CITY           SKY/WX    TMP DP  RH WIND       PRES   REMARKS
SCRANTON       CLOUDY    61  57  87 VRB5      29.97F
MOUNT POCONO   FOG       52  52 100 SE5       30.01F VSB 1/4
ALLENTOWN      CLOUDY    61  56  83 E5        30.01F HAZE
QUAKERTOWN*    CLOUDY    61  61 100 CALM      30.02F
READING        CLOUDY    61  61 100 S6        29.99F FOG
LANCASTER      CLOUDY    65  62  90 E6        29.99F
COATESVILLE    CLOUDY    61  59  94 E3        30.03S
POTTSTOWN      CLOUDY    59  59 100 CALM      30.03F FOG
BLUE BELL      CLOUDY    59  59 100 CALM      30.03S
DOYLESTOWN     NOT AVBL
WILLOW GROVE   NOT AVBL
NORTH PHILA    NOT AVBL
PHILADELPHIA   CLOUDY    63  58  83 NE5       30.02S
$$




USA.gov is the U.S. government's official web portal to all federal, state and local government web resources and services.